Location: Saugnac-et-Cambran
(43.6790°N, 0.9928°W)
Time: 06:01:41
(UTC+00:00)

Daily predictions for brighter satellites

Satellite Brightness Start Highest point End
(mag) Time Altitude Azimuth Time Altitude Azimuth Time Altitude Azimuth
SPOT 5 2.8 19:22:56 10° SSE 19:27:21 57° ENE 19:31:39 10° N
NOSS 3-4 (A) 3.7 19:22:34 10° SW 19:27:46 64° NW 19:33:30 10° NNE
NOSS 3-4 (C) 3.7 19:23:04 10° SW 19:28:18 65° NW 19:34:04 10° NNE
Cosmos 1656 Rocket 4.4 19:26:58 10° N 19:32:03 37° ENE 19:37:09 10° SE
Cosmos 1025 Rocket 4.4 19:29:42 10° NNE 19:33:00 21° ENE 19:36:18 10° ESE
Helios 1A Rocket 3.1 19:31:33 10° NE 19:34:25 30° E 19:37:15 10° SSE
Cosmos 1733 Rocket 3.2 19:30:44 10° S 19:34:59 55° E 19:39:18 10° NNE
CZ-4B R/B 4.0 19:31:40 10° SSE 19:35:17 50° ENE 19:39:03 10° N
Terra 2.8 19:32:43 10° SE 19:36:43 29° ENE 19:40:44 10° N
SJ-6B 3.5 19:33:38 10° S 19:37:10 50° W 19:40:42 10° NNW
Cosmos 2242 Rocket 3.8 19:32:58 10° N 19:37:20 53° ENE 19:41:37 10° SSE
BREEZE-M DEB (TANK) 3.2 19:35:39 10° NW 19:38:01 34° NNE 19:42:21 10° E
IRAS Rocket 4.3 19:34:26 10° SSE 19:39:51 66° ENE 19:45:17 10° N
Gblst 52 Del rocket 4.4 19:34:44 10° SW 19:40:31 86° SE 19:47:09 10° ENE
Resurs 01 Rocket 3.5 19:37:15 10° SSW 19:41:09 31° W 19:45:03 10° NNW
Cosmos 1821 Rocket 4.1 19:35:24 10° S 19:41:32 61° E 19:47:47 10° NNE
Cosmos 2237 Rocket 2.6 19:36:46 10° SSW 19:42:26 70° WNW 19:48:08 10° NNE
Meteor 2-15 4.4 19:37:23 10° S 19:43:26 80° E 19:49:34 10° N
Cosmos 1980 4.3 19:38:51 10° SW 19:44:25 62° WNW 19:50:02 10° NNE
Meteor 1-21 Rocket 4.5 19:41:32 10° NNW 19:47:14 77° W 19:53:00 10° S
Cosmos 2218 Rocket 4.0 19:41:24 10° S 19:47:32 89° W 19:53:45 10° N
CSL-04 Rocket 3.7 19:42:56 10° SSE 19:48:29 86° ENE 19:54:04 10° NNW
Meteor 2-15 Rocket 4.4 19:44:57 10° S 19:50:56 65° E 19:56:58 10° NNE
BREEZE-M DEB (TANK) 3.8 19:49:33 10° WNW 19:51:38 28° N 19:54:52 10° ENE
Cosmos 1346 Rocket 3.5 19:49:36 10° N 19:52:51 30° ENE 19:55:10 16° SE
SL-4 R/B 3.2 19:53:17 10° S 19:56:02 19° SE 19:57:34 15° ESE
OAO 3 Rocket 4.4 19:52:37 10° WSW 19:56:30 26° S 19:59:27 15° SE
Cosmos 1400 Rocket 2.5 19:52:55 10° S 19:56:30 86° E 20:00:08 10° N
BREEZE-M DEB (TANK) 4.0 19:53:07 10° S 19:56:40 35° ESE 20:06:09 10° ENE
Cosmos 1812 0.4 19:56:45 20° S 19:57:42 64° E 19:59:21 10° NNE
SL-24 R/B 4.4 19:53:54 10° NNE 19:59:20 82° ESE 20:04:07 10° S
Meteor 1-31 Rocket 2.5 19:56:21 10° SSE 19:59:52 83° WSW 20:03:24 10° NNW
TIMED 4.4 19:56:34 10° NNW 20:00:50 85° ENE 20:04:49 12° SSE
Cosmos 1943 Rocket 3.9 19:57:08 10° NW 20:02:04 32° WSW 20:06:58 10° SSW
ASTEX 1 4.3 19:59:48 15° SE 20:02:56 29° ENE 20:07:10 10° NNE
Gbstr 26 Del rocket 4.3 19:58:32 10° S 20:02:58 25° SE 20:06:31 11° E
USA 59 Rocket -0.1 20:00:19 10° NW 20:03:51 77° SW 20:07:45 15° SSE
Feng Yun 1-1 Rocket 4.2 20:00:26 10° SSE 20:05:54 76° ENE 20:11:20 10° N
Cosmos 1869 4.4 20:06:01 19° E 20:06:32 20° E 20:09:11 10° NE
ADEOS 3.7 20:06:32 14° SSE 20:10:58 58° ENE 20:16:05 10° N
Cosmos 2369 Rocket 2.9 20:06:27 10° N 20:11:38 37° ENE 20:14:59 19° ESE
Aureole 3 4.4 20:07:15 10° N 20:12:33 80° W 20:18:45 10° S
USA 186 3.3 20:14:08 13° NE 20:14:08 13° NE 20:14:54 10° NNE
CBERS 1 LM4 rocket 4.3 20:10:01 13° SSE 20:14:12 73° ENE 20:18:59 10° N
RESURS DK-1 4.3 20:11:46 10° WSW 20:15:20 32° WNW 20:18:55 10° N
SL-08 R/B 3.6 20:11:02 10° NNE 20:15:49 50° E 20:20:32 10° S
MOS 1 4.2 20:10:27 10° SSE 20:16:05 82° ENE 20:21:47 10° NNW
Cosmos 2285 Rocket 4.1 20:12:41 10° S 20:18:51 55° ESE 20:25:01 10° NNE
Cosmos 2221 Rocket 3.9 20:16:09 10° N 20:20:24 46° ENE 20:22:40 24° SE
USA 234 3.2 20:14:55 10° NE 20:21:27 67° SE 20:27:57 10° SW
SKYMED 3 4.2 20:19:52 10° NNE 20:23:46 71° ESE 20:27:38 10° S
Cosmos 405 Rocket 4.1 20:23:03 10° NNE 20:24:26 15° ENE 20:24:26 15° ENE
Cosmos 1943 4.0 20:23:24 21° SE 20:25:48 29° ESE 20:30:34 10° NE
Molniya-1 2.8 20:24:29 10° SSW 20:26:58 76° SE 20:31:33 10° NE
CZ-4B R/B 4.4 20:27:34 16° ENE 20:27:35 16° ENE 20:29:48 10° NNE
CZ-4B DEB 4.5 20:22:37 10° S 20:28:02 68° WSW 20:33:33 10° NNW
CZ-4B R/B 3.2 20:23:42 14° SSE 20:28:33 87° ENE 20:34:15 10° NNW
Cosmos 2278 Rocket 4.3 20:24:33 10° NW 20:28:58 24° WSW 20:33:24 10° SSW
SL-8 R/B 3.9 20:26:20 10° WSW 20:31:04 70° NNW 20:35:47 10° ENE
OAO 2 Rocket 4.3 20:28:51 10° WSW 20:33:21 31° S 20:34:49 26° SSE
Cosmos 1975 Rocket 4.4 20:31:58 10° NNE 20:35:28 22° ENE 20:35:59 22° E
ERS-1 Rocket 3.3 20:33:53 13° S 20:38:21 65° WSW 20:43:21 10° NNW
Cosmos 1674 Rocket 4.0 20:37:41 10° NNW 20:41:58 59° W 20:45:17 16° S
Cosmos 2292 Rocket 3.4 20:41:32 10° NNW 20:45:36 67° W 20:47:05 31° SSW
Okean-O 2.6 20:44:32 37° SE 20:46:08 66° ENE 20:50:29 10° N
Cosmos 2298 Rocket 4.0 20:42:29 10° SSW 20:47:47 89° WNW 20:53:08 10° NNE
Cosmos 44 4.1 20:44:15 10° SW 20:49:12 56° NW 20:54:27 10° NNE
Cosmos 1908 Rocket 3.5 20:45:39 15° SSW 20:49:17 80° W 20:53:36 10° N
NOSS 2-1 (E) 4.3 20:48:10 10° NW 20:51:36 41° WSW 20:53:26 27° S
Okean O Rocket 1.4 20:53:05 40° SSE 20:54:35 85° ENE 20:58:56 10° NNW
IRS-1A Rocket 4.4 20:51:42 22° S 20:55:25 74° WSW 21:01:11 10° NNW
BREEZE-M DEB (TANK) 4.2 20:50:36 10° WNW 20:55:45 33° SW 20:56:25 30° SSW
CZ-4B R/B 4.0 20:55:25 35° E 20:56:19 38° ENE 21:00:42 10° N
CZ-4 R/B 3.7 20:55:08 10° SW 20:57:48 19° W 21:00:29 10° NW
Ariane Rocket 3.7 20:57:13 33° E 20:58:13 36° ENE 21:02:47 10° N
SL-16 R/B 2.7 20:52:55 10° SW 20:58:31 61° WNW 21:04:09 10° NNE
Cosmos 1782 Rocket 3.4 20:58:38 51° SSE 20:59:29 65° E 21:03:45 10° NNE
Cosmos 1934 Rocket 3.9 20:54:46 14° S 21:00:21 88° ESE 21:06:35 10° N
Geosat 4.0 20:57:16 10° NNE 21:02:17 83° WNW 21:07:17 10° SSW
Spot 2 Rocket 3.5 21:03:20 34° S 21:05:33 76° WSW 21:10:35 10° NNW
USA 245 4.0 21:05:18 48° SE 21:06:25 62° ENE 21:11:50 10° N
Cosmos 1269 Rocket 4.3 21:04:08 10° NNW 21:09:18 51° ENE 21:10:20 44° ESE
MOS 1-B 4.4 21:06:46 31° S 21:09:40 77° WSW 21:15:29 10° NNW
ATLAS 5 CENTAUR R/B 3.7 21:07:13 10° N 21:09:48 16° NE 21:11:03 14° ENE
Cosmos 1140 Rocket 3.6 21:06:47 10° NNW 21:11:52 58° ENE 21:12:46 50° ESE
Terra 3.3 21:10:46 14° SSW 21:14:08 31° W 21:18:20 10° NNW
NOSS 3-1 (C) 4.0 21:12:01 10° NW 21:19:16 89° NE 21:23:02 39° SE
Cosmos 967 Rocket 4.5 21:14:05 10° NW 21:20:33 82° WSW 21:22:39 46° SSE
Cosmos 1862 4.2 21:20:33 10° N 21:22:56 35° NNE 21:22:56 35° NNE
Cosmos 1300 Rocket 4.2 21:25:04 31° SW 21:26:45 50° WNW 21:30:56 10° N
Cosmos 2058 3.6 21:24:36 10° N 21:27:31 41° NNE 21:27:31 41° NNE
Cosmos 407 Rocket 4.1 21:23:56 10° N 21:28:45 39° ENE 21:28:57 39° ENE
SL-4 R/B 3.3 21:29:13 10° WSW 21:31:15 30° WSW 21:31:15 30° WSW
Cosmos 371 Rocket 4.3 21:29:00 10° N 21:33:16 33° ENE 21:33:16 33° ENE
COSMOS 2455 3.1 21:34:26 10° NNW 21:40:20 54° NE 21:41:17 49° E
SJ 16-02 2.9 21:37:49 10° N 21:40:32 24° NE 21:40:32 24° NE
Cosmos 1315 Rocket 3.6 21:43:33 44° WNW 21:43:33 44° WNW 21:46:55 10° N
Gbstr 26 Del rocket 3.3 21:44:04 10° WSW 21:48:40 66° WNW 21:48:40 66° WNW
SPOT 3 Rocket 3.7 21:48:49 57° SW 21:49:30 62° WSW 21:54:38 10° NNW
Cosmos 1605 Rocket 4.1 21:47:33 38° SSW 21:49:56 68° W 21:56:05 10° N
Cosmos 2297 4.5 21:46:02 10° NW 21:51:26 43° WSW 21:52:39 38° SW
Lacrosse 5 rocket 3.4 21:51:29 10° NNW 21:52:47 17° N 21:52:47 17° N
Cosmos 2369 Rocket 3.3 21:50:34 10° NW 21:55:33 34° WSW 21:56:46 31° SW
SeaSat 1 4.2 21:56:42 20° NE 21:57:09 20° NE 22:00:39 10° N
Cosmos 2173 Rocket 4.2 22:03:22 52° ENE 22:03:22 52° ENE 22:08:47 10° NNE
USA 234 4.2 21:58:05 10° NE 22:04:17 46° NNW 22:10:28 10° W
Cosmos 1603 3.6 22:07:59 77° NE 22:07:59 77° NE 22:13:18 10° NNE
Cosmos 921 Rocket 3.9 22:03:18 10° NNW 22:06:41 47° NW 22:06:41 47° NW
Cosmos 1943 4.2 22:04:58 14° SW 22:09:34 45° WNW 22:15:00 10° NNE
Cosmos 1975 Rocket 4.4 22:09:16 10° NNW 22:12:59 33° W 22:12:59 33° W
Meteor 2-3 Rocket 4.2 22:09:13 10° N 22:14:03 50° NE 22:14:03 50° NE
NOSS 3-1 (A) 4.0 22:11:44 10° NW 22:19:06 85° SW 22:20:42 63° SSE
Cosmos 2100 Rocket 3.9 22:26:44 81° NE 22:26:44 81° NE 22:32:41 10° N
Ariane Rocket 4.4 22:37:17 28° W 22:37:17 28° W 22:41:27 10° NW
Cosmos 1656 4.1 22:39:57 10° NNW 22:44:20 57° N 22:44:20 57° N
ATLAS 3B R/B 4.3 22:45:01 10° NNW 22:51:52 32° NNE 22:55:41 21° ENE
ATLAS 5 CENTAUR R/B 3.2 22:47:56 10° NW 22:50:10 32° NW 22:50:10 32° NW
Cosmos 1833 Rocket 4.1 23:01:17 30° NE 23:01:17 30° NE 23:04:09 10° NE
Cosmos 1818 4.4 22:59:58 10° NW 23:03:52 48° NW 23:03:52 48° NW
Cosmos 1725 Rocket 4.2 23:08:52 69° NNW 23:08:52 69° NNW 23:14:34 10° N
DEBRIS 4.3 23:14:39 56° NW 23:15:22 61° N 23:28:44 10° ENE
Cosmos 2233 Rocket 4.3 23:18:32 65° N 23:18:32 65° N 23:23:47 10° N
SJ 16-02 3.8 23:15:44 10° NW 23:17:02 17° NW 23:17:02 17° NW
ATLAS 2AS CENTAUR R/B 2.9 23:25:29 64° NE 23:25:29 64° NE 23:31:09 10° NE
COSMOS 2455 4.4 23:20:57 10° NW 23:24:25 25° W 23:24:25 25° W
CZ-2C R/B 4.1 23:29:07 30° NE 23:29:07 30° NE 23:33:03 10° N
SeaSat 1 3.9 23:36:18 32° NW 23:36:18 32° NW 23:38:57 10° NNW
ACS3 Solar Sail 3.8 23:42:02 10° NE 23:44:42 15° ENE 23:44:42 15° ENE
Cosmos 1697 Rocket 3.6 23:43:16 10° NNW 23:47:06 45° NNW 23:47:06 45° NNW
